#timestamp,LO_Frequency,Hit 
1501092015.0,286047000.5,N
1501092015.9,286047000.5,N
1501092035.8,286047001.3,N
1501092055.6,286047001.6,N
1501092075.4,286047002.5,N
1501092095.3,286047002.8,N
1501092115.1,286047000.9,N
1501092116.0,286047000.9,N
1501092135.8,286046999.7,N
1501092155.7,286046999.9,N
1501092175.5,286047001.7,N
1501092195.3,286047001.5,N
1501092215.2,286047002.2,N
1501092235.9,286047004.4,N
1501092255.7,286047001.5,N
1501092275.5,286047001.6,N
1501092295.4,286047003.6,N
1501092315.2,286047003.7,N
1501092335.0,286047004.2,N
1501092335.9,286047004.2,N
1501092355.8,286047003.5,N
1501092375.6,286047004.2,N
1501092395.4,286047001.4,N
1501092415.3,286047004.4,N
1501092435.1,286047003.9,N
1501092436.0,286047003.9,N
1501092455.8,286047005.7,N
1501092475.7,286047003.4,N
1501092495.5,286047003.3,N
1501092515.3,286047006.0,N
1501092535.1,286047001.9,N
1501092555.9,286046997.3,N
1501092575.7,286046995.2,N
1501092595.5,286046994.3,N
1501092615.4,286046996.0,N
1501092635.2,286046991.7,N
1501092655.0,286046990.5,N
1501092655.9,286046990.5,N
1501092675.8,286046991.1,N
1501092695.6,286046990.2,N
1501092715.4,286046993.0,N
1501092735.2,286046994.2,N
1501092755.1,286046993.2,N
1501092756.0,286046993.2,N
1501092775.8,286046993.0,N
1501092795.6,286046993.9,N
1501092815.5,286046992.0,N
1501092835.3,286046991.4,N
1501092855.1,286046993.1,N
1501092875.9,286046994.6,N
1501092895.7,286046992.6,N
1501092915.5,286046991.1,N
1501092935.4,286046988.2,N
1501092955.2,286046986.2,N
1501092975.0,286046988.3,N
1501092975.9,286046988.3,N
1501092995.8,286046984.0,Y
1501093015.6,286046979.3,Y
1501093035.4,286046973.8,Y
1501093055.3,286046969.2,Y
1501093075.1,286046964.2,Y
1501093095.9,286046956.5,Y
1501093115.7,286046955.9,Y
1501093135.5,286046951.1,Y
1501093155.4,286046947.9,Y
1501093175.2,286046942.9,Y
1501093195.1,286046941.6,Y
1501093196.0,286046941.6,Y
1501093215.8,286046937.2,Y
1501093235.7,286046933.5,Y
1501093255.5,286046931.2,Y
1501093275.3,286046931.2,Y
1501093295.2,286046933.3,Y
1501093315.0,286046938.1,Y
1501093315.9,286046938.1,Y
1501093335.8,286046935.0,Y
1501093355.6,286046934.8,Y
1501093375.4,286046932.6,Y
1501093395.3,286046931.0,Y
1501093415.1,286046931.6,Y
1501093435.9,286046931.4,Y
1501093455.7,286046931.8,Y
1501093475.5,286046929.9,Y
1501093495.4,286046929.7,Y
1501093515.2,286046931.1,Y
1501093535.1,286046934.8,Y
1501093536.0,286046934.8,Y
1501093555.8,286046937.2,Y
1501093575.7,286046941.3,Y
1501093595.5,286046942.9,Y
1501093615.3,286046943.8,N
1501093635.2,286046944.0,N
1501093655.9,286046942.4,N
1501093675.7,286046944.4,N
1501093695.5,286046946.5,N
1501093715.4,286046946.2,N
1501093735.2,286046949.5,N
1501093755.0,286046947.6,N
1501093755.9,286046947.6,N
1501093775.8,286046949.2,N
1501093795.6,286046947.3,N
1501093815.4,286046948.7,N
1501093835.3,286046949.9,N
1501093855.1,286046948.7,N
1501093856.0,286046948.7,N
1501093875.8,286046947.6,N
1501093895.7,286046950.0,N
1501093915.5,286046947.1,N
1501093935.3,286046945.6,N
1501093955.1,286046944.7,N
1501093975.9,286046941.9,N
1501093995.7,286046939.9,N
1501094015.5,286046936.6,N
1501094035.4,286046935.3,N
1501094055.2,286046934.9,N
1501094075.0,286046935.2,N
1501094075.9,286046935.2,N
1501094095.8,286046930.9,N
1501094115.6,286046932.2,N
1501094135.4,286046935.6,N
1501094155.3,286046932.9,N
1501094175.1,286046936.3,N
1501094176.0,286046936.3,N
1501094195.8,286046934.7,N
1501094215.6,286046933.4,N
1501094235.5,286046931.4,N
1501094255.3,286046929.6,N
1501094275.1,286046930.5,N
1501094295.9,286046930.6,N
1501094315.7,286046928.4,N
1501094335.5,286046929.5,N
1501094355.4,286046932.1,N
1501094375.2,286046933.1,N
1501094395.0,286046933.0,N
1501094395.9,286046933.0,N
1501094415.8,286046937.1,N
1501094435.6,286046935.7,N
1501094455.4,286046938.1,N
1501094475.3,286046940.4,N
1501094495.1,286046940.4,N
1501094496.0,286046940.4,N
1501094515.8,286046941.5,N
1501094535.6,286046939.0,N
1501094555.5,286046943.2,N
1501094575.3,286046941.7,N
1501094595.1,286046941.3,N
1501094615.9,286046941.6,N
1501094635.7,286046939.7,N
1501094655.5,286046934.2,N
1501094675.4,286046932.8,N
1501094695.2,286046932.3,N
1501094715.0,286046932.3,N
1501094715.9,286046932.3,N
1501094735.8,286046933.6,N
1501094755.6,286046933.8,N
1501094775.4,286046932.2,N
1501094795.2,286046929.5,N
1501094815.1,286046930.3,N
1501094816.0,286046930.3,N
1501094835.8,286046930.3,N
1501094855.6,286046929.0,N
1501094875.5,286046924.5,N
1501094895.3,286046924.6,N
1501094915.1,286046925.6,N
1501094935.9,286046924.8,N
1501094955.7,286046926.1,N
1501094975.5,286046924.5,N
1501094995.4,286046926.6,N
1501095015.2,286046924.8,N
1501095035.0,286046924.1,N
1501095035.9,286046924.1,N
1501095055.7,286046921.6,N
1501095075.6,286046921.9,N
1501095095.4,286046925.6,N
1501095115.2,286046935.5,N
1501095135.1,286046938.6,N
1501095136.0,286046938.6,N
1501095155.8,286046942.0,N
1501095175.6,286046945.2,N
1501095195.5,286046941.0,N
1501095215.3,286046941.8,N
1501095235.1,286046941.9,N
1501095255.9,286046941.8,N
1501095275.7,286046943.1,N
1501095295.5,286046940.8,N
1501095315.3,286046939.8,N
1501095335.2,286046940.8,N
1501095355.9,286046939.1,N
1501095375.7,286046939.3,N
1501095395.6,286046939.8,N
1501095415.4,286046940.2,N
1501095435.2,286046939.2,N
1501095455.1,286046940.4,N
1501095456.0,286046940.4,N
1501095475.8,286046941.8,N
1501095495.6,286046940.4,N
1501095515.4,286046937.3,N
1501095535.3,286046935.9,N
1501095555.1,286046938.8,N
1501095575.8,286046938.4,N
1501095595.7,286046938.3,N
